[[{"header":{"parameterUnit":"m.s-1","parameterCategory":1,"la1":30.2991,"la2":30.254,"lo1":-89.0895,"lo2":-89.0444,"dy":0.0017,"dx":0.0017,"nx":28,"ny":28,"refTime":"2025-07-29T09:00:00:Z","depth":0,"parameterNumber":2,"parameterNumberName":"U-component_of_WINDS"},"data":[0,0,0,0,0,0,0,0,0,0,0,0,0,0,0,0,0,0,0,0,0,0,0,0,0,0,0,0,0,0,0,0,0,0,0,0,0,0,0,0,0,0,0,0,0,0,0,0,0,0,0,0,0,0,0,0,0,0,1.6535,1.6534,0,1.6435,1.6434,1.6433,1.6302,1.63,1.6298,1.6296,1.6199,1.6198,1.6197,0,0,0,0,0,0,0,0,0,0,0,0,0,1.6615,1.6615,1.6535,1.6534,1.6532,1.6435,1.6434,1.6433,1.6302,1.63,1.6297,1.6295,1.6199,1.6198,1.6197,0,0,0,0,0,0,0,0,0,0,0,0,0,1.6555,1.6614,1.6535,1.6456,1.6447,1.6436,1.6434,1.6432,1.6303,1.63,1.6296,1.6293,1.6199,1.6198,1.6197,1.6257,0,0,1.6195,1.6194,0,0,0,0,0,0,0,0,1.6559,1.6552,1.6469,1.6461,1.6452,1.6378,1.6427,1.6374,1.6304,1.6358,1.6296,1.6292,1.6261,1.6255,1.6244,1.6253,1.6248,1.6195,1.6194,1.6194,1.6194,0,0,0,0,0,0,0,1.6563,1.6556,1.6496,1.6468,1.6457,1.6426,1.6414,1.6416,1.6329,1.6353,1.6343,1.6333,1.6256,1.6245,1.624,1.6247,1.6195,1.6194,1.6193,1.6193,1.6298,1.6301,0,0,0,0,0,0,1.6578,1.656,1.6499,1.6493,1.6498,1.6427,1.6413,1.6405,1.6329,1.6314,1.6336,1.6327,1.6248,1.6241,1.6236,1.6299,1.6194,1.6193,1.6193,1.6294,1.6298,1.6302,0,0,0,0,0,0,1.6581,1.6574,1.6503,1.6524,1.6512,1.6429,1.6421,1.6405,1.6393,1.6316,1.63,1.634,1.6245,1.6238,1.6252,1.6294,1.6193,1.6192,1.629,1.6296,1.63,1.6426,0,0,0,0,0,0,1.6584,1.6576,1.6597,1.6525,1.6511,1.6519,1.6423,1.6405,1.6391,1.6379,1.6315,1.6302,1.6242,1.6254,1.6251,1.6291,1.6191,1.6286,1.6293,1.6298,1.6418,1.6435,1.645,0,0,0,0,0,1.6587,1.6638,1.6599,1.6592,1.6536,1.6522,1.6514,1.6443,1.6395,1.6416,1.6366,1.6304,1.629,1.6257,1.6252,1.6292,1.6283,1.6291,1.6298,1.6411,1.6432,1.6449,0,0,0,0,0,0,1.6719,1.6627,1.6583,1.6612,1.6576,1.65,1.6524,1.6468,1.6445,1.6435,1.6349,1.6336,1.636,1.6328,1.6292,1.6345,1.6277,1.6284,1.6365,1.6384,1.6399,1.6406,1.619,0,0,0,0,0,1.6752,1.6747,1.6667,1.6701,1.6685,1.6608,1.6599,1.6547,1.6507,1.6491,1.6442,1.6407,1.6394,1.6387,1.6372,1.6413,1.6397,1.6439,1.6455,1.6468,1.6474,1.6492,1.6509,1.6326,1.6326,1.6326,0,0,1.6819,1.6768,1.6771,1.6726,1.6692,1.6689,1.6596,1.6598,1.6595,1.6492,1.6501,1.6464,1.6419,1.6447,1.6456,1.642,1.6521,1.6477,1.6489,1.6488,1.6501,1.6519,1.6534,1.6331,1.633,1.6329,0,0,1.6939,1.6901,1.6923,1.689,1.6839,1.6787,1.6793,1.6725,1.6696,1.6704,1.6626,1.6622,1.6603,1.6572,1.6555,1.6663,1.6604,1.666,1.6742,1.676,1.6774,1.6787,1.6823,1.6837,1.6668,1.6668,1.6668,0,1.7029,1.7021,1.6943,1.6948,1.693,1.6835,1.6857,1.6829,1.6777,1.6767,1.6727,1.6699,1.6662,1.668,1.6706,1.6696,1.6699,1.6666,1.6778,1.679,1.68,1.6834,1.6848,1.6675,1.6674,1.6673,1.6673,0,1.7133,1.7129,1.7153,1.7101,1.7087,1.7101,1.7025,1.702,1.697,1.6923,1.6931,1.6883,1.6855,1.6856,1.6808,1.6867,1.6846,1.6794,1.6724,1.6826,1.6856,1.6869,1.6685,1.6682,1.668,1.6679,0,0,1.7333,1.7237,1.7247,1.7221,1.7157,1.7153,1.7163,1.7133,1.7129,1.7097,1.7102,1.7087,1.7037,1.7018,1.6965,1.6982,1.7067,1.6927,1.6924,1.6953,1.7127,1.7165,1.7182,1.7029,1.7031,1.7033,1.713,0,1.744,1.7449,1.7378,1.7406,1.74,1.731,1.7318,1.728,1.7237,1.7226,1.7178,1.7168,1.7105,1.7092,1.7104,1.7054,1.7101,1.7047,1.7032,1.7033,1.7044,1.7197,1.7238,1.7332,1.7142,1.7144,1.7145,0,1.7565,1.7535,1.7563,1.7495,1.749,1.7499,1.7464,1.7456,1.7411,1.7378,1.7355,1.7294,1.7299,1.7234,1.724,1.7204,1.7195,1.717,1.7172,1.7166,1.7094,1.7194,1.7361,1.7375,1.7164,1.7162,1.7161,0,1.7705,1.7673,1.7684,1.7665,1.7588,1.7595,1.7564,1.7515,1.7502,1.7473,1.7463,1.7437,1.7422,1.7403,1.7337,1.7296,1.735,1.7279,1.7322,1.7324,1.7336,1.7335,1.7502,1.7334,1.7334,1.7333,1.7333,0,1.7829,1.7849,1.7745,1.7752,1.7771,1.7691,1.7713,1.7672,1.763,1.7628,1.755,1.755,1.7463,1.7453,1.7402,1.7413,1.7408,1.7381,1.7367,1.7387,1.739,1.7378,1.7369,1.7337,1.7336,1.7336,1.7335,0,1.7988,1.792,1.7925,1.7851,1.7832,1.785,1.7786,1.779,1.7741,1.7739,1.7734,1.7659,1.7643,1.7575,1.7545,1.751,1.7538,1.7512,1.7553,1.7543,1.7588,1.7584,1.7751,1.7768,1.7592,1.7594,1.7595,0,1.807,1.8083,1.8009,1.8001,1.7972,1.7961,1.7945,1.7867,1.7854,1.7804,1.7813,1.7791,1.7769,1.7749,1.7691,1.7667,1.7638,1.7698,1.7634,1.7653,1.7636,1.7635,1.7635,1.7712,1.7714,1.7716,1.7717,0,1.8224,1.8189,1.8169,1.8137,1.812,1.8092,1.806,1.8058,1.7971,1.7961,1.7943,1.7926,1.7893,1.7872,1.7838,1.7806,1.7747,1.7738,1.7746,1.7765,1.7788,1.7774,1.7588,1.7734,1.7732,1.7731,1.773,1.773,1.8345,1.8351,1.8299,1.8279,1.8246,1.8217,1.8215,1.8166,1.8149,1.8115,1.807,1.8058,1.8012,1.796,1.7933,1.7922,1.7889,1.7902,1.7905,1.7908,1.7917,1.7791,1.7916,1.7916,1.7915,1.7915,1.7914,0,1.8491,1.8453,1.8436,1.8391,1.8376,1.8321,1.8281,1.8272,1.8262,1.8223,1.8202,1.8181,1.816,1.8101,1.8074,1.8077,1.8049,1.8073,1.807,1.8064,1.795,1.7944,1.8095,1.8095,1.8095,1.8095,1.8095,1.8095,1.8566,1.8572,1.8531,1.8521,1.8483,1.8468,1.845,1.8423,1.8391,1.8371,1.8352,1.8313,1.8266,1.8235,1.8213,1.8196,1.8189,1.8221,1.8195,1.8089,1.8072,1.8056,1.805,1.8221,1.8221,1.831,1.8311,1.8311]},{"header":{"parameterUnit":"m.s-1","parameterCategory":1,"la1":30.2991,"la2":30.254,"lo1":-89.0895,"lo2":-89.0444,"dy":0.0017,"dx":0.0017,"nx":28,"ny":28,"refTime":"2025-07-29T09:00:00:Z","depth":0,"parameterNumber":3,"parameterNumberName":"V-component_of_WINDS"},"data":[0,0,0,0,0,0,0,0,0,0,0,0,0,0,0,0,0,0,0,0,0,0,0,0,0,0,0,0,0,0,0,0,0,0,0,0,0,0,0,0,0,0,0,0,0,0,0,0,0,0,0,0,0,0,0,0,0,0,3.9082,3.9085,0,3.929,3.9292,3.9294,3.9337,3.9335,3.9334,3.9332,3.9537,3.9544,3.9551,0,0,0,0,0,0,0,0,0,0,0,0,0,3.8718,3.8724,3.9082,3.9085,3.9088,3.9289,3.9292,3.9295,3.9337,3.9335,3.9334,3.9332,3.9535,3.9543,3.9551,0,0,0,0,0,0,0,0,0,0,0,0,0,3.8895,3.8726,3.9082,3.9133,3.914,3.9289,3.9292,3.9296,3.9338,3.9335,3.9333,3.9331,3.9532,3.9542,3.9552,3.9662,0,0,3.9584,3.9588,0,0,0,0,0,0,0,0,3.8885,3.8909,3.9123,3.913,3.9138,3.9285,3.9239,3.9418,3.9338,3.9262,3.9332,3.933,3.9455,3.9471,3.9515,3.9672,3.9681,3.9585,3.9591,3.9595,3.9598,0,0,0,0,0,0,0,3.8873,3.89,3.9164,3.9126,3.9135,3.9144,3.9167,3.9273,3.9369,3.9269,3.9272,3.9297,3.9458,3.9505,3.952,3.9684,3.9584,3.9594,3.96,3.9604,3.9942,3.9945,0,0,0,0,0,0,3.8852,3.8889,3.9157,3.917,3.9003,3.9152,3.9178,3.924,3.9368,3.9385,3.9298,3.9298,3.9488,3.9508,3.9527,3.9665,3.9595,3.9605,3.9611,3.9939,3.9943,3.9946,0,0,0,0,0,0,3.8844,3.8876,3.9149,3.9031,3.9067,3.9161,3.9231,3.9245,3.9292,3.939,3.9407,3.9329,3.9487,3.9513,3.9629,3.9673,3.961,3.9619,3.9936,3.994,3.9944,3.9941,0,0,0,0,0,0,3.8834,3.8873,3.8917,3.9032,3.9073,3.9249,3.9233,3.9251,3.9311,3.9312,3.9423,3.9439,3.9487,3.9614,3.9639,3.9686,3.9627,3.9932,3.9938,3.9943,3.9937,3.9944,3.995,0,0,0,0,0,3.8821,3.8906,3.8919,3.8951,3.913,3.9252,3.9275,3.933,3.9314,3.9358,3.9422,3.9436,3.9664,3.9625,3.9655,3.9705,3.993,3.9936,3.9942,3.9934,3.9943,3.995,0,0,0,0,0,0,3.879,3.8921,3.8937,3.9063,3.9146,3.9259,3.9316,3.9337,3.9425,3.9422,3.9485,3.951,3.9623,3.9675,3.963,3.9818,3.9796,3.9808,3.978,3.9789,3.9795,3.9779,3.9636,0,0,0,0,0,3.8798,3.8888,3.8997,3.9097,3.9139,3.922,3.9275,3.9311,3.9399,3.9434,3.9505,3.9588,3.9679,3.9737,3.9825,3.9946,3.997,3.9995,4.0001,4.0006,4.0015,4.0084,4.0096,3.9966,3.9966,3.9966,0,0,3.8815,3.8898,3.8951,3.9093,3.9162,3.9252,3.9249,3.9344,3.9411,3.9447,3.9562,3.9618,3.9714,3.9834,3.989,3.9881,4.0057,4.0014,4.0017,4.0024,4.0091,4.0103,4.0114,3.9971,3.997,3.9969,0,0,3.8892,3.8965,3.9056,3.9126,3.9232,3.9286,3.9308,3.9418,3.9457,3.9575,3.9604,3.9684,3.9838,3.9906,3.9961,4.0066,4.0082,4.0093,4.0126,4.0192,4.0202,4.0211,4.0249,4.0261,4.0103,4.0103,4.0103,0,3.8899,3.9038,3.91,3.9195,3.9256,3.9297,3.9389,3.9453,3.9581,3.9622,3.9611,3.9807,3.9875,4.0011,4.0037,4.008,4.0106,4.008,4.0196,4.0206,4.0215,4.0252,4.0266,4.0103,4.0103,4.0103,4.0103,0,3.9042,3.9138,3.9199,3.9325,3.9393,3.9486,3.956,3.9622,3.9653,3.9707,3.9826,3.991,4.0016,4.0051,4.0081,4.0192,4.0184,4.0184,4.0162,4.0227,4.0263,4.0277,4.0104,4.0104,4.0104,4.0104,0,0,3.9102,3.9264,3.9285,3.9343,3.9464,3.9538,3.9633,3.974,3.9792,3.9879,3.9959,4.0091,4.0093,4.0155,4.0192,4.025,4.0329,4.0244,4.0247,4.0256,4.0456,4.0455,4.047,4.0341,4.0344,4.0346,4.0448,0,3.9194,3.9367,3.9426,3.9568,3.9658,3.9699,3.9781,3.9863,3.9917,3.9999,4.0058,4.015,4.0146,4.0184,4.0243,4.0306,4.0369,4.03,4.0415,4.0418,4.0388,4.0489,4.0487,4.0579,4.0462,4.0465,4.0466,0,3.9323,3.9415,3.9567,3.9679,3.9718,3.9792,3.9896,3.9974,4.0068,4.0103,4.0174,4.0209,4.0308,4.0282,4.0419,4.0371,4.0421,4.046,4.0464,4.0476,4.0445,4.0502,4.061,4.0623,4.0489,4.0487,4.0485,0,3.9351,3.9514,3.9627,3.9675,3.9808,3.9858,3.9915,4.0007,4.0069,4.0159,4.0199,4.0298,4.0353,4.0428,4.0488,4.0464,4.062,4.0599,4.0651,4.0649,4.068,4.0677,4.0797,4.0714,4.0714,4.0714,4.0713,0,3.9446,3.9538,3.9642,3.9711,3.9814,3.9881,3.9981,4.004,4.0122,4.0202,4.0243,4.0316,4.0392,4.0475,4.0522,4.0629,4.0653,4.0683,4.0694,4.0679,4.0675,4.0712,4.0707,4.0717,4.0717,4.0716,4.0715,0,3.9495,3.9569,3.9694,3.9811,3.9842,3.9913,4.0012,4.008,4.0137,4.0238,4.0265,4.0354,4.0455,4.0523,4.065,4.0682,4.0798,4.0808,4.0767,4.0772,4.082,4.0814,4.0966,4.099,4.0892,4.0893,4.0894,0,3.955,3.9622,3.9748,3.9806,3.9864,3.9956,4.002,4.0089,4.0154,4.0267,4.0321,4.0425,4.0512,4.0671,4.0745,4.0843,4.0856,4.0902,4.087,4.0853,4.0856,4.0851,4.0858,4.0907,4.0907,4.0908,4.0908,0,3.964,3.9674,3.9766,3.9871,3.9947,4.0033,4.0118,4.0163,4.0246,4.0316,4.0421,4.0489,4.0622,4.0724,4.083,4.0887,4.0911,4.0919,4.0936,4.092,4.0893,4.0909,4.078,4.0914,4.0914,4.0913,4.0913,4.0913,3.9694,3.976,3.9859,3.9961,4.0033,4.0113,4.0183,4.0251,4.034,4.0455,4.049,4.0599,4.0692,4.0838,4.0897,4.0982,4.0977,4.1002,4.1008,4.1013,4.1013,4.0881,4.1001,4.1001,4.1001,4.1001,4.1001,0,3.9785,3.9852,3.9945,4.0065,4.0145,4.0165,4.0261,4.0326,4.0423,4.0509,4.0595,4.0715,4.0816,4.09,4.1003,4.1055,4.1069,4.108,4.1076,4.1089,4.1011,4.0986,4.1067,4.1067,4.1067,4.1067,4.1067,4.1067,3.9842,3.9956,4.0002,4.0152,4.0218,4.0327,4.038,4.0454,4.0523,4.0658,4.0742,4.0798,4.0883,4.0993,4.1086,4.1108,4.1144,4.1152,4.1176,4.1102,4.1094,4.1087,4.1063,4.1159,4.1159,4.1247,4.1247,4.1248]}]]